Location: Casa Rossa
(45.2389°N, 12.2056°E)
Time: 23:10:47
(UTC+00:00)

Cosmos 1140 Rocket - Pass Details

Date: 14 July 2020
Orbit: 744 x 768 km, 74.1° (Epoch: 14 August)

Event Time Altitude Azimuth Distance (km) Brightness Sun altitude
Exits shadow 00:52:12 35° 173° (S) 1,203 4.1 -19.7°
Maximum altitude 00:54:15 63° 107° (ESE) 852 3.7 -19.6°
Drops below altitude 10° 00:59:25 10° 27° (NNE) 2,310 7.2 -19.2°
Sets 01:01:49 0° 25° (NNE) 3,243 8.4 -19.0°
